Time,TemperatureF,DewpointF,PressureIn,WindDirection,WindDirectionDegrees,WindSpeedMPH,WindSpeedGustMPH,Humidity,HourlyPrecipIn,Conditions,Clouds,dailyrainin,SoftwareType,DateUTC
2013-02-28 00:01:00,28.6,7.9,30.21,SSW,204,3.6,4.5,41,0.00,,---,0.00,VWS V14.01,2013-02-28 07:01:00,
2013-02-28 00:06:00,28.9,8.2,30.21,South,175,6.3,7.6,41,0.00,,---,0.00,VWS V14.01,2013-02-28 07:06:00,
2013-02-28 00:11:00,29.3,8.5,30.21,SW,235,6.3,8.3,41,0.00,,---,0.00,VWS V14.01,2013-02-28 07:11:00,
2013-02-28 00:16:00,29.3,8.5,30.21,SSW,203,2.7,4.9,41,0.00,,---,0.00,VWS V14.01,2013-02-28 07:16:00,
2013-02-28 00:21:00,28.9,8.2,30.21,SSW,194,2.7,6.3,41,0.00,,---,0.00,VWS V14.01,2013-02-28 07:21:00,
2013-02-28 00:26:00,28.6,7.9,30.21,SW,223,3.1,6.3,41,0.00,,---,0.00,VWS V14.01,2013-02-28 07:26:00,
2013-02-28 00:31:00,28.8,8.0,30.21,SSW,208,4.0,4.5,41,0.00,,---,0.00,VWS V14.01,2013-02-28 07:31:00,
2013-02-28 00:36:00,28.8,8.0,30.21,South,184,4.9,4.9,41,0.00,,---,0.00,VWS V14.01,2013-02-28 07:36:00,
2013-02-28 00:41:00,28.9,8.2,30.21,SSW,197,4.0,5.4,41,0.00,,---,0.00,VWS V14.01,2013-02-28 07:41:00,
2013-02-28 00:46:00,29.1,8.4,30.21,SSE,156,4.0,4.9,41,0.00,,---,0.00,VWS V14.01,2013-02-28 07:46:00,
2013-02-28 00:51:00,28.9,8.2,30.21,SW,228,4.9,4.9,41,0.00,,---,0.00,VWS V14.01,2013-02-28 07:51:00,
2013-02-28 00:56:00,28.4,7.7,30.21,WSW,258,3.1,4.9,41,0.00,,---,0.00,VWS V14.01,2013-02-28 07:56:00,
2013-02-28 01:01:00,27.9,7.2,30.21,WSW,241,2.2,3.1,41,0.00,,---,0.00,VWS V14.01,2013-02-28 08:01:00,
2013-02-28 01:06:00,27.9,7.2,30.21,South,173,0.0,3.1,41,0.00,,---,0.00,VWS V14.01,2013-02-28 08:06:00,
2013-02-28 01:11:00,28.4,7.7,30.21,WSW,247,0.0,3.1,41,0.00,,---,0.00,VWS V14.01,2013-02-28 08:11:00,
2013-02-28 01:16:00,28.8,8.0,30.21,SSE,165,0.0,0.0,41,0.00,,---,0.00,VWS V14.01,2013-02-28 08:16:00,
2013-02-28 01:21:00,29.3,8.5,30.21,South,178,5.4,6.3,41,0.00,,---,0.00,VWS V14.01,2013-02-28 08:21:00,
2013-02-28 01:26:00,30.0,9.2,30.21,SSE,165,4.9,6.3,41,0.00,,---,0.00,VWS V14.01,2013-02-28 08:26:00,
2013-02-28 01:31:00,30.4,9.0,30.21,SSE,163,3.1,4.0,40,0.00,,---,0.00,VWS V14.01,2013-02-28 08:31:00,
2013-02-28 01:36:00,30.7,9.3,30.21,SSW,200,4.9,7.2,40,0.00,,---,0.00,VWS V14.01,2013-02-28 08:36:00,
2013-02-28 01:41:00,31.1,9.1,30.21,West,267,3.1,7.2,39,0.00,,---,0.00,VWS V14.01,2013-02-28 08:41:00,
2013-02-28 01:46:00,30.6,8.6,30.21,WNW,285,0.0,0.0,39,0.00,,---,0.00,VWS V14.01,2013-02-28 08:46:00,
2013-02-28 01:51:00,30.2,8.8,30.21,ENE,69,0.0,0.0,40,0.00,,---,0.00,VWS V14.01,2013-02-28 08:51:00,
2013-02-28 01:56:00,29.8,8.5,30.24,East,99,0.0,0.0,40,0.00,,---,0.00,VWS V14.01,2013-02-28 08:56:00,
2013-02-28 02:01:00,29.8,9.0,30.24,East,99,0.0,0.0,41,0.00,,---,0.00,VWS V14.01,2013-02-28 09:01:00,
2013-02-28 02:06:00,29.7,8.9,30.24,East,99,0.0,0.0,41,0.00,,---,0.00,VWS V14.01,2013-02-28 09:06:00,
2013-02-28 02:11:00,29.7,8.9,30.24,East,99,0.0,0.0,41,0.00,,---,0.00,VWS V14.01,2013-02-28 09:11:00,
2013-02-28 02:16:00,29.8,9.0,30.24,East,99,0.0,0.0,41,0.00,,---,0.00,VWS V14.01,2013-02-28 09:16:00,
2013-02-28 02:21:00,30.0,8.6,30.24,NNE,32,0.0,0.0,40,0.00,,---,0.00,VWS V14.01,2013-02-28 09:21:00,
2013-02-28 02:26:00,30.2,8.8,30.24,NW,321,0.0,0.0,40,0.00,,---,0.00,VWS V14.01,2013-02-28 09:26:00,
2013-02-28 02:31:00,30.2,8.8,30.24,NNW,336,0.0,0.0,40,0.00,,---,0.00,VWS V14.01,2013-02-28 09:31:00,
2013-02-28 02:36:00,30.2,8.8,30.24,North,1,3.6,3.6,40,0.00,,---,0.00,VWS V14.01,2013-02-28 09:36:00,
2013-02-28 02:41:00,30.2,9.4,30.24,North,2,0.0,3.6,41,0.00,,---,0.00,VWS V14.01,2013-02-28 09:41:00,
2013-02-28 02:46:00,30.0,9.2,30.24,North,5,0.0,0.0,41,0.00,,---,0.00,VWS V14.01,2013-02-28 09:46:00,
2013-02-28 02:51:00,29.8,9.0,30.24,North,0,0.0,0.0,41,0.00,,---,0.00,VWS V14.01,2013-02-28 09:51:00,
2013-02-28 02:56:00,29.7,8.3,30.24,NE,44,0.0,0.0,40,0.00,,---,0.00,VWS V14.01,2013-02-28 09:56:00,
2013-02-28 03:01:00,29.5,8.1,30.24,ENE,58,0.0,0.0,40,0.00,,---,0.00,VWS V14.01,2013-02-28 10:01:00,
2013-02-28 03:06:00,29.1,8.4,30.24,ENE,58,0.0,0.0,41,0.00,,---,0.00,VWS V14.01,2013-02-28 10:06:00,
2013-02-28 03:11:00,28.9,8.2,30.24,ENE,58,0.0,0.0,41,0.00,,---,0.00,VWS V14.01,2013-02-28 10:11:00,
2013-02-28 03:16:00,28.8,8.0,30.24,ENE,69,0.0,0.0,41,0.00,,---,0.00,VWS V14.01,2013-02-28 10:16:00,
2013-02-28 03:21:00,28.6,7.9,30.24,ENE,69,0.0,0.0,41,0.00,,---,0.00,VWS V14.01,2013-02-28 10:21:00,
2013-02-28 03:26:00,28.6,7.9,30.24,ENE,69,0.0,0.0,41,0.00,,---,0.00,VWS V14.01,2013-02-28 10:26:00,
2013-02-28 03:31:00,28.6,7.9,30.24,ENE,69,0.0,0.0,41,0.00,,---,0.00,VWS V14.01,2013-02-28 10:31:00,
2013-02-28 03:36:00,28.4,7.7,30.24,ENE,69,0.0,0.0,41,0.00,,---,0.00,VWS V14.01,2013-02-28 10:36:00,
2013-02-28 03:41:00,28.4,8.2,30.24,ENE,72,0.0,0.0,42,0.00,,---,0.00,VWS V14.01,2013-02-28 10:41:00,
2013-02-28 03:46:00,28.4,8.2,30.24,ENE,72,0.0,0.0,42,0.00,,---,0.00,VWS V14.01,2013-02-28 10:46:00,
2013-02-28 03:51:00,28.4,8.2,30.24,ENE,72,0.0,0.0,42,0.00,,---,0.00,VWS V14.01,2013-02-28 10:51:00,
2013-02-28 03:56:00,28.4,8.8,30.24,ENE,72,0.0,0.0,43,0.00,,---,0.00,VWS V14.01,2013-02-28 10:56:00,
2013-02-28 04:01:00,28.6,8.4,30.24,ENE,72,0.0,0.0,42,0.00,,---,0.00,VWS V14.01,2013-02-28 11:01:00,
2013-02-28 04:06:00,28.6,8.4,30.24,ENE,78,0.0,0.0,42,0.00,,---,0.00,VWS V14.01,2013-02-28 11:06:00,
2013-02-28 04:11:00,28.6,8.4,30.24,ENE,78,0.0,0.0,42,0.00,,---,0.00,VWS V14.01,2013-02-28 11:11:00,
2013-02-28 04:16:00,28.6,8.4,30.24,ENE,78,0.0,0.0,42,0.00,,---,0.00,VWS V14.01,2013-02-28 11:16:00,
2013-02-28 04:21:00,28.6,8.4,30.24,ENE,78,0.0,0.0,42,0.00,,---,0.00,VWS V14.01,2013-02-28 11:21:00,
2013-02-28 04:26:00,28.6,8.4,30.24,ENE,78,0.0,0.0,42,0.00,,---,0.00,VWS V14.01,2013-02-28 11:26:00,
2013-02-28 04:31:00,28.6,8.4,30.24,ENE,78,0.0,0.0,42,0.00,,---,0.00,VWS V14.01,2013-02-28 11:31:00,
2013-02-28 04:36:00,28.8,8.6,30.24,ENE,78,0.0,0.0,42,0.00,,---,0.00,VWS V14.01,2013-02-28 11:36:00,
2013-02-28 04:41:00,28.8,8.6,30.24,SSE,161,0.0,0.0,42,0.00,,---,0.00,VWS V14.01,2013-02-28 11:41:00,
2013-02-28 04:46:00,28.9,8.7,30.24,SSE,161,0.0,0.0,42,0.00,,---,0.00,VWS V14.01,2013-02-28 11:46:00,
2013-02-28 04:51:00,28.9,9.3,30.24,SSE,161,0.0,0.0,43,0.00,,---,0.00,VWS V14.01,2013-02-28 11:51:00,
2013-02-28 04:56:00,28.8,9.1,30.24,SSE,161,0.0,0.0,43,0.00,,---,0.00,VWS V14.01,2013-02-28 11:56:00,
2013-02-28 05:01:00,28.8,9.1,30.24,SSE,161,0.0,0.0,43,0.00,,---,0.00,VWS V14.01,2013-02-28 12:01:00,
2013-02-28 05:06:00,28.8,9.1,30.24,SSE,161,0.0,0.0,43,0.00,,---,0.00,VWS V14.01,2013-02-28 12:06:00,
2013-02-28 05:11:00,28.8,9.1,30.24,SSE,161,0.0,0.0,43,0.00,,---,0.00,VWS V14.01,2013-02-28 12:11:00,
2013-02-28 05:16:00,28.8,9.1,30.24,SSE,161,0.0,0.0,43,0.00,,---,0.00,VWS V14.01,2013-02-28 12:16:00,
2013-02-28 05:21:00,28.8,9.1,30.24,SSE,161,0.0,0.0,43,0.00,,---,0.00,VWS V14.01,2013-02-28 12:21:00,
2013-02-28 05:26:00,28.8,9.1,30.24,SSE,161,0.0,0.0,43,0.00,,---,0.00,VWS V14.01,2013-02-28 12:26:00,
2013-02-28 05:31:00,28.6,8.9,30.24,SSE,161,0.0,0.0,43,0.00,,---,0.00,VWS V14.01,2013-02-28 12:31:00,
2013-02-28 05:36:00,28.6,8.9,30.24,SSE,161,0.0,0.0,43,0.00,,---,0.00,VWS V14.01,2013-02-28 12:36:00,
2013-02-28 05:41:00,28.8,9.1,30.24,SSE,161,0.0,0.0,43,0.00,,---,0.00,VWS V14.01,2013-02-28 12:41:00,
2013-02-28 05:46:00,28.9,9.3,30.24,SSE,161,0.0,0.0,43,0.00,,---,0.00,VWS V14.01,2013-02-28 12:46:00,
2013-02-28 05:51:00,29.1,9.4,30.24,SSE,161,0.0,0.0,43,0.00,,---,0.00,VWS V14.01,2013-02-28 12:51:00,
2013-02-28 05:56:00,29.1,9.4,30.24,SSE,161,0.0,0.0,43,0.00,,---,0.00,VWS V14.01,2013-02-28 12:56:00,
2013-02-28 06:01:00,29.3,9.6,30.24,ESE,105,0.0,0.0,43,0.00,,---,0.00,VWS V14.01,2013-02-28 13:01:00,
2013-02-28 06:06:00,29.1,9.4,30.24,East,88,0.0,4.0,43,0.00,,---,0.00,VWS V14.01,2013-02-28 13:06:00,
2013-02-28 06:11:00,29.1,9.9,30.24,East,88,0.0,4.0,44,0.00,,---,0.00,VWS V14.01,2013-02-28 13:11:00,
2013-02-28 06:16:00,29.1,9.9,30.24,East,88,0.0,0.0,44,0.00,,---,0.00,VWS V14.01,2013-02-28 13:16:00,
2013-02-28 06:21:00,29.3,10.6,30.24,ENE,57,0.0,0.0,45,0.00,,---,0.00,VWS V14.01,2013-02-28 13:21:00,
2013-02-28 06:26:00,29.5,10.8,30.24,ENE,57,0.0,0.0,45,0.00,,---,0.00,VWS V14.01,2013-02-28 13:26:00,
2013-02-28 06:31:00,30.2,11.4,30.24,ENE,57,0.0,0.0,45,0.00,,---,0.00,VWS V14.01,2013-02-28 13:31:00,
2013-02-28 06:36:00,31.1,11.8,30.24,WNW,286,2.7,4.5,44,0.00,,---,0.00,VWS V14.01,2013-02-28 13:36:00,
2013-02-28 06:41:00,32.0,12.6,30.24,ESE,117,2.7,4.5,44,0.00,,---,0.00,VWS V14.01,2013-02-28 13:41:00,
2013-02-28 06:46:00,32.5,13.1,30.24,SE,137,6.3,6.3,44,0.00,,---,0.00,VWS V14.01,2013-02-28 13:46:00,
2013-02-28 06:51:00,32.7,12.7,30.24,SSE,166,2.7,6.7,43,0.00,,---,0.00,VWS V14.01,2013-02-28 13:51:00,
2013-02-28 06:56:00,32.7,12.7,30.24,SE,140,3.1,6.7,43,0.00,,---,0.00,VWS V14.01,2013-02-28 13:56:00,
2013-02-28 07:01:00,32.5,12.5,30.24,SSE,155,2.7,4.0,43,0.00,,---,0.00,VWS V14.01,2013-02-28 14:01:00,
2013-02-28 07:06:00,32.5,12.5,30.24,South,169,4.0,4.0,43,0.00,,---,0.00,VWS V14.01,2013-02-28 14:06:00,
2013-02-28 07:11:00,32.5,12.5,30.24,SSE,159,2.7,5.4,43,0.00,,---,0.00,VWS V14.01,2013-02-28 14:11:00,
2013-02-28 07:16:00,32.5,12.5,30.24,SE,142,2.7,4.0,43,0.00,,---,0.00,VWS V14.01,2013-02-28 14:16:00,
2013-02-28 07:21:00,32.7,12.7,30.24,ESE,114,2.7,4.0,43,0.00,,---,0.00,VWS V14.01,2013-02-28 14:21:00,
2013-02-28 07:26:00,33.1,13.0,30.24,SE,136,2.7,5.4,43,0.00,,---,0.00,VWS V14.01,2013-02-28 14:26:00,
2013-02-28 07:31:00,33.1,13.0,30.24,SE,125,3.6,3.6,43,0.00,,---,0.00,VWS V14.01,2013-02-28 14:31:00,
2013-02-28 07:36:00,33.3,13.2,30.24,SE,127,3.6,4.9,43,0.00,,---,0.00,VWS V14.01,2013-02-28 14:36:00,
2013-02-28 07:41:00,33.4,13.4,30.24,SE,126,4.0,5.8,43,0.00,,---,0.00,VWS V14.01,2013-02-28 14:41:00,
2013-02-28 07:46:00,33.6,13.5,30.24,SE,141,3.6,4.0,43,0.00,,---,0.00,VWS V14.01,2013-02-28 14:46:00,
2013-02-28 07:51:00,33.8,13.1,30.24,SE,131,4.0,6.3,42,0.00,,---,0.00,VWS V14.01,2013-02-28 14:51:00,
2013-02-28 07:56:00,34.0,13.3,30.24,SE,128,4.0,6.3,42,0.00,,---,0.00,VWS V14.01,2013-02-28 14:56:00,
2013-02-28 08:01:00,34.2,13.5,30.24,SE,137,5.8,5.8,42,0.00,,---,0.00,VWS V14.01,2013-02-28 15:01:00,
2013-02-28 08:06:00,34.5,13.8,30.24,SE,129,2.7,6.3,42,0.00,,---,0.00,VWS V14.01,2013-02-28 15:06:00,
2013-02-28 08:11:00,34.7,14.0,30.24,SE,138,2.2,6.3,42,0.00,,---,0.00,VWS V14.01,2013-02-28 15:11:00,
2013-02-28 08:16:00,34.9,14.1,30.24,SE,144,3.1,5.8,42,0.00,,---,0.00,VWS V14.01,2013-02-28 15:16:00,
2013-02-28 08:21:00,35.1,14.3,30.24,ESE,123,0.0,5.8,42,0.00,,---,0.00,VWS V14.01,2013-02-28 15:21:00,
2013-02-28 08:26:00,35.4,14.6,30.27,ESE,123,0.0,5.8,42,0.00,,---,0.00,VWS V14.01,2013-02-28 15:26:00,
2013-02-28 08:31:00,35.6,14.8,30.27,ESE,123,0.0,0.0,42,0.00,,---,0.00,VWS V14.01,2013-02-28 15:31:00,
2013-02-28 08:36:00,35.8,14.4,30.27,South,169,3.1,4.9,41,0.00,,---,0.00,VWS V14.01,2013-02-28 15:36:00,
2013-02-28 08:41:00,36.1,14.7,30.27,South,190,3.1,4.9,41,0.00,,---,0.00,VWS V14.01,2013-02-28 15:41:00,
2013-02-28 08:46:00,36.5,15.1,30.27,SE,136,0.0,3.1,41,0.00,,---,0.00,VWS V14.01,2013-02-28 15:46:00,
2013-02-28 08:51:00,36.9,15.4,30.27,SE,140,3.6,5.4,41,0.00,,---,0.00,VWS V14.01,2013-02-28 15:51:00,
2013-02-28 08:56:00,36.9,15.4,30.27,SSE,150,3.6,5.4,41,0.00,,---,0.00,VWS V14.01,2013-02-28 15:56:00,
2013-02-28 09:01:00,36.9,15.4,30.27,SSE,147,3.1,3.6,41,0.00,,---,0.00,VWS V14.01,2013-02-28 16:01:00,
2013-02-28 09:06:00,37.0,15.5,30.27,SSE,150,2.7,4.9,41,0.00,,---,0.00,VWS V14.01,2013-02-28 16:06:00,
2013-02-28 09:11:00,37.2,15.7,30.27,South,177,3.6,6.3,41,0.00,,---,0.00,VWS V14.01,2013-02-28 16:11:00,
2013-02-28 09:16:00,37.6,15.5,30.27,SSE,151,2.7,4.9,40,0.00,,---,0.00,VWS V14.01,2013-02-28 16:16:00,
2013-02-28 09:21:00,37.9,15.8,30.27,SSE,163,3.1,5.4,40,0.00,,---,0.00,VWS V14.01,2013-02-28 16:21:00,
2013-02-28 09:26:00,37.9,15.8,30.27,SSE,157,3.6,7.2,40,0.00,,---,0.00,VWS V14.01,2013-02-28 16:26:00,
2013-02-28 09:31:00,38.1,15.9,30.27,SSE,151,0.0,0.0,40,0.00,,---,0.00,VWS V14.01,2013-02-28 16:31:00,
2013-02-28 09:36:00,38.5,16.3,30.27,SSW,192,3.6,5.4,40,0.00,,---,0.00,VWS V14.01,2013-02-28 16:36:00,
2013-02-28 09:41:00,38.5,16.3,30.30,SE,135,5.4,6.3,40,0.00,,---,0.00,VWS V14.01,2013-02-28 16:41:00,
2013-02-28 09:46:00,38.3,16.1,30.30,South,179,4.0,5.4,40,0.00,,---,0.00,VWS V14.01,2013-02-28 16:46:00,
2013-02-28 09:51:00,38.3,16.1,30.30,South,181,2.7,6.3,40,0.00,,---,0.00,VWS V14.01,2013-02-28 16:51:00,
2013-02-28 09:57:00,38.7,16.4,30.30,SSE,148,0.0,6.3,40,0.00,,---,0.00,VWS V14.01,2013-02-28 16:57:00,
2013-02-28 10:02:00,39.4,17.1,30.30,SE,135,0.0,0.0,40,0.00,,---,0.00,VWS V14.01,2013-02-28 17:02:00,
2013-02-28 10:06:00,39.7,16.8,30.30,North,8,3.1,4.9,39,0.00,,---,0.00,VWS V14.01,2013-02-28 17:06:00,
2013-02-28 10:12:00,38.1,15.4,30.30,NNW,348,2.7,5.4,39,0.00,,---,0.00,VWS V14.01,2013-02-28 17:12:00,
2013-02-28 10:17:00,36.9,14.2,30.30,North,357,5.4,6.3,39,0.00,,---,0.00,VWS V14.01,2013-02-28 17:17:00,
2013-02-28 10:22:00,36.3,13.8,30.30,North,0,6.3,8.3,39,0.00,,---,0.00,VWS V14.01,2013-02-28 17:22:00,
2013-02-28 10:27:00,36.1,14.2,30.30,North,0,5.4,8.3,40,0.00,,---,0.00,VWS V14.01,2013-02-28 17:27:00,
2013-02-28 10:32:00,36.1,14.2,30.30,North,6,3.6,5.4,40,0.00,,---,0.00,VWS V14.01,2013-02-28 17:32:00,
2013-02-28 10:37:00,36.3,14.3,30.30,North,357,5.4,5.8,40,0.00,,---,0.00,VWS V14.01,2013-02-28 17:37:00,
2013-02-28 10:42:00,36.3,14.3,30.30,North,357,5.8,6.3,40,0.00,,---,0.00,VWS V14.01,2013-02-28 17:42:00,
2013-02-28 10:47:00,36.7,14.6,30.30,North,7,3.1,5.8,40,0.00,,---,0.00,VWS V14.01,2013-02-28 17:47:00,
2013-02-28 10:52:00,37.4,14.7,30.30,North,357,2.7,5.8,39,0.00,,---,0.00,VWS V14.01,2013-02-28 17:52:00,
2013-02-28 10:57:00,37.6,14.9,30.30,North,2,2.7,5.8,39,0.00,,---,0.00,VWS V14.01,2013-02-28 17:57:00,
2013-02-28 11:02:00,37.6,14.9,30.30,North,357,3.6,5.4,39,0.00,,---,0.00,VWS V14.01,2013-02-28 18:02:00,
2013-02-28 11:07:00,37.9,15.2,30.30,NNE,14,3.6,5.4,39,0.00,,---,0.00,VWS V14.01,2013-02-28 18:07:00,
2013-02-28 11:12:00,38.5,15.7,30.30,NNE,21,2.7,5.4,39,0.00,,---,0.00,VWS V14.01,2013-02-28 18:12:00,
2013-02-28 11:16:00,38.8,16.0,30.30,North,353,2.7,3.6,39,0.00,,---,0.00,VWS V14.01,2013-02-28 18:16:00,
2013-02-28 11:21:00,39.2,16.3,30.30,NNE,13,3.1,4.0,39,0.00,,---,0.00,VWS V14.01,2013-02-28 18:21:00,
2013-02-28 11:26:00,39.9,17.0,30.30,NE,55,2.7,4.0,39,0.00,,---,0.00,VWS V14.01,2013-02-28 18:26:00,
2013-02-28 11:31:00,40.6,17.6,30.30,ENE,68,2.2,3.6,39,0.00,,---,0.00,VWS V14.01,2013-02-28 18:31:00,
2013-02-28 11:36:00,41.9,18.2,30.30,ESE,105,2.7,3.6,38,0.00,,---,0.00,VWS V14.01,2013-02-28 18:36:00,
2013-02-28 11:41:00,42.4,18.6,30.30,East,90,0.0,4.9,38,0.00,,---,0.00,VWS V14.01,2013-02-28 18:41:00,
2013-02-28 11:46:00,42.8,18.4,30.30,ESE,120,4.0,4.0,37,0.00,,---,0.00,VWS V14.01,2013-02-28 18:46:00,
2013-02-28 11:51:00,43.3,19.5,30.30,SE,134,0.0,4.0,38,0.00,,---,0.00,VWS V14.01,2013-02-28 18:51:00,
2013-02-28 11:56:00,44.1,18.8,30.30,SE,134,0.0,4.0,36,0.00,,---,0.00,VWS V14.01,2013-02-28 18:56:00,
2013-02-28 12:02:00,44.8,18.8,30.30,East,94,0.0,4.0,35,0.00,,---,0.00,VWS V14.01,2013-02-28 19:02:00,
2013-02-28 12:06:00,45.9,19.8,30.30,SE,125,0.0,4.0,35,0.00,,---,0.00,VWS V14.01,2013-02-28 19:06:00,
2013-02-28 12:12:00,45.1,17.8,30.30,North,0,0.0,4.0,33,0.00,,---,0.00,VWS V14.01,2013-02-28 19:12:00,
2013-02-28 12:17:00,44.8,17.5,30.30,North,0,0.0,0.0,33,0.00,,---,0.00,VWS V14.01,2013-02-28 19:17:00,
2013-02-28 12:22:00,45.0,17.6,30.30,ESE,102,3.6,4.5,33,0.00,,---,0.00,VWS V14.01,2013-02-28 19:22:00,
2013-02-28 12:27:00,44.8,17.5,30.30,SSE,159,6.3,6.3,33,0.00,,---,0.00,VWS V14.01,2013-02-28 19:27:00,
2013-02-28 12:32:00,44.6,18.0,30.30,ESE,115,2.7,5.4,34,0.00,,---,0.00,VWS V14.01,2013-02-28 19:32:00,
2013-02-28 12:37:00,44.1,17.5,30.30,South,180,5.4,8.1,34,0.00,,---,0.00,VWS V14.01,2013-02-28 19:37:00,
2013-02-28 12:42:00,43.9,18.0,30.30,SSE,157,4.0,8.1,35,0.00,,---,0.00,VWS V14.01,2013-02-28 19:42:00,
2013-02-28 12:47:00,44.1,18.2,30.30,SE,135,4.9,8.1,35,0.00,,---,0.00,VWS V14.01,2013-02-28 19:47:00,
2013-02-28 12:52:00,44.1,18.2,30.30,SE,144,5.8,8.1,35,0.00,,---,0.00,VWS V14.01,2013-02-28 19:52:00,
2013-02-28 12:56:00,43.5,17.7,30.30,South,182,3.1,8.1,35,0.00,,---,0.00,VWS V14.01,2013-02-28 19:56:00,
2013-02-28 13:02:00,43.5,17.7,30.30,South,181,7.6,7.6,35,0.00,,---,0.00,VWS V14.01,2013-02-28 20:02:00,
2013-02-28 13:07:00,43.5,17.7,30.30,SSE,164,5.4,8.3,35,0.00,,---,0.00,VWS V14.01,2013-02-28 20:07:00,
2013-02-28 13:12:00,43.9,18.0,30.30,ESE,105,4.0,8.3,35,0.00,,---,0.00,VWS V14.01,2013-02-28 20:12:00,
2013-02-28 13:17:00,44.6,18.7,30.30,SSE,161,4.0,4.9,35,0.00,,---,0.00,VWS V14.01,2013-02-28 20:17:00,
2013-02-28 13:22:00,45.3,18.6,30.30,SE,145,5.4,8.3,34,0.00,,---,0.00,VWS V14.01,2013-02-28 20:22:00,
2013-02-28 13:27:00,45.3,18.6,30.30,ESE,120,4.9,8.3,34,0.00,,---,0.00,VWS V14.01,2013-02-28 20:27:00,
2013-02-28 13:32:00,45.3,17.9,30.30,SSE,164,4.0,8.3,33,0.00,,---,0.00,VWS V14.01,2013-02-28 20:32:00,
2013-02-28 13:37:00,45.5,18.8,30.30,South,170,4.0,8.3,34,0.00,,---,0.00,VWS V14.01,2013-02-28 20:37:00,
2013-02-28 13:42:00,46.0,19.3,30.30,SE,129,4.5,8.3,34,0.00,,---,0.00,VWS V14.01,2013-02-28 20:42:00,
2013-02-28 13:47:00,46.0,18.6,30.30,SSE,150,6.3,7.6,33,0.00,,---,0.00,VWS V14.01,2013-02-28 20:47:00,
2013-02-28 13:52:00,46.4,18.9,30.30,SE,128,3.1,7.6,33,0.00,,---,0.00,VWS V14.01,2013-02-28 20:52:00,
2013-02-28 13:57:00,46.9,19.4,30.27,SSE,164,3.6,7.6,33,0.00,,---,0.00,VWS V14.01,2013-02-28 20:57:00,
2013-02-28 14:02:00,47.1,18.8,30.27,SE,129,5.4,5.8,32,0.00,,---,0.00,VWS V14.01,2013-02-28 21:02:00,
2013-02-28 14:07:00,46.9,18.6,30.27,SSE,167,2.7,6.3,32,0.00,,---,0.00,VWS V14.01,2013-02-28 21:07:00,
2013-02-28 14:12:00,46.8,18.5,30.27,SSE,160,5.4,8.7,32,0.00,,---,0.00,VWS V14.01,2013-02-28 21:12:00,
2013-02-28 14:17:00,47.3,19.0,30.27,SSE,150,6.3,6.3,32,0.00,,---,0.00,VWS V14.01,2013-02-28 21:17:00,
2013-02-28 14:22:00,48.0,19.6,30.27,SSE,157,4.0,8.3,32,0.00,,---,0.00,VWS V14.01,2013-02-28 21:22:00,
2013-02-28 14:27:00,48.6,19.3,30.27,SSW,202,7.6,8.7,31,0.00,,---,0.00,VWS V14.01,2013-02-28 21:27:00,
2013-02-28 14:32:00,49.1,19.8,30.27,SSE,160,6.3,8.7,31,0.00,,---,0.00,VWS V14.01,2013-02-28 21:32:00,
2013-02-28 14:37:00,48.9,19.6,30.27,ESE,109,5.8,9.6,31,0.00,,---,0.00,VWS V14.01,2013-02-28 21:37:00,
2013-02-28 14:42:00,49.1,19.8,30.27,ESE,117,4.0,9.6,31,0.00,,---,0.00,VWS V14.01,2013-02-28 21:42:00,
2013-02-28 14:47:00,49.6,19.5,30.27,SSE,150,5.8,8.3,30,0.00,,---,0.00,VWS V14.01,2013-02-28 21:47:00,
2013-02-28 14:52:00,49.3,19.2,30.27,SE,145,4.0,8.3,30,0.00,,---,0.00,VWS V14.01,2013-02-28 21:52:00,
2013-02-28 14:57:00,49.5,19.3,30.27,SE,142,5.8,8.3,30,0.00,,---,0.00,VWS V14.01,2013-02-28 21:57:00,
2013-02-28 15:02:00,48.6,17.8,30.27,SE,127,5.8,8.1,29,0.00,,---,0.00,VWS V14.01,2013-02-28 22:02:00,
2013-02-28 15:07:00,47.8,17.9,30.27,SSW,193,3.1,8.1,30,0.00,,---,0.00,VWS V14.01,2013-02-28 22:07:00,
2013-02-28 15:12:00,47.7,17.8,30.27,SE,137,5.4,8.1,30,0.00,,---,0.00,VWS V14.01,2013-02-28 22:12:00,
2013-02-28 15:17:00,47.8,17.9,30.27,SSE,154,5.4,10.1,30,0.00,,---,0.00,VWS V14.01,2013-02-28 22:17:00,
2013-02-28 15:22:00,47.7,17.8,30.27,SE,145,3.6,10.1,30,0.00,,---,0.00,VWS V14.01,2013-02-28 22:22:00,
2013-02-28 15:27:00,47.5,17.6,30.27,WSW,250,2.7,10.1,30,0.00,,---,0.00,VWS V14.01,2013-02-28 22:27:00,
2013-02-28 15:32:00,47.5,17.6,30.27,SE,126,3.6,5.4,30,0.00,,---,0.00,VWS V14.01,2013-02-28 22:32:00,
2013-02-28 15:37:00,47.5,17.6,30.27,SSE,155,3.6,7.6,30,0.00,,---,0.00,VWS V14.01,2013-02-28 22:37:00,
2013-02-28 15:42:00,47.3,17.5,30.24,South,169,5.4,8.1,30,0.00,,---,0.00,VWS V14.01,2013-02-28 22:42:00,
2013-02-28 15:47:00,47.1,17.3,30.24,SSE,164,3.6,7.6,30,0.00,,---,0.00,VWS V14.01,2013-02-28 22:47:00,
2013-02-28 15:52:00,47.1,17.3,30.24,South,170,4.0,8.1,30,0.00,,---,0.00,VWS V14.01,2013-02-28 22:52:00,
2013-02-28 15:57:00,47.1,17.3,30.27,SSE,162,4.0,8.1,30,0.00,,---,0.00,VWS V14.01,2013-02-28 22:57:00,
2013-02-28 16:02:00,47.1,17.3,30.27,SSE,156,2.2,8.1,30,0.00,,---,0.00,VWS V14.01,2013-02-28 23:02:00,
2013-02-28 16:07:00,46.8,17.0,30.27,South,170,3.6,8.7,30,0.00,,---,0.00,VWS V14.01,2013-02-28 23:07:00,
2013-02-28 16:12:00,46.4,16.7,30.27,SSE,168,4.9,8.7,30,0.00,,---,0.00,VWS V14.01,2013-02-28 23:12:00,
2013-02-28 16:17:00,46.4,17.4,30.27,SSW,193,3.1,5.8,31,0.00,,---,0.00,VWS V14.01,2013-02-28 23:17:00,
2013-02-28 16:22:00,46.2,17.3,30.27,SE,144,5.4,8.3,31,0.00,,---,0.00,VWS V14.01,2013-02-28 23:22:00,
2013-02-28 16:27:00,45.9,17.0,30.27,SSW,206,7.6,10.1,31,0.00,,---,0.00,VWS V14.01,2013-02-28 23:27:00,
2013-02-28 16:32:00,45.7,16.8,30.27,South,171,7.6,8.3,31,0.00,,---,0.00,VWS V14.01,2013-02-28 23:32:00,
2013-02-28 16:37:00,45.5,17.4,30.27,SSW,210,5.4,10.5,32,0.00,,---,0.00,VWS V14.01,2013-02-28 23:37:00,
2013-02-28 16:42:00,45.1,17.1,30.27,SW,233,4.0,10.5,32,0.00,,---,0.00,VWS V14.01,2013-02-28 23:42:00,
2013-02-28 16:47:00,44.8,16.7,30.27,SSW,207,5.8,6.3,32,0.00,,---,0.00,VWS V14.01,2013-02-28 23:47:00,
2013-02-28 16:52:00,44.6,17.3,30.27,SSW,199,8.1,8.1,33,0.00,,---,0.00,VWS V14.01,2013-02-28 23:52:00,
2013-02-28 16:57:00,44.2,17.7,30.30,South,183,5.4,8.1,34,0.00,,---,0.00,VWS V14.01,2013-02-28 23:57:00,
2013-02-28 17:02:00,44.1,18.2,30.30,SSE,168,3.6,6.3,35,0.00,,---,0.00,VWS V14.01,2013-03-01 00:02:00,
2013-02-28 17:07:00,43.5,18.4,30.30,South,188,5.4,8.7,36,0.00,,---,0.00,VWS V14.01,2013-03-01 00:07:00,
2013-02-28 17:12:00,43.3,18.8,30.30,SW,216,3.6,8.7,37,0.00,,---,0.00,VWS V14.01,2013-03-01 00:12:00,
2013-02-28 17:17:00,43.2,19.3,30.30,WSW,238,4.0,8.3,38,0.00,,---,0.00,VWS V14.01,2013-03-01 00:17:00,
2013-02-28 17:22:00,42.8,19.0,30.30,SSW,192,4.0,8.3,38,0.00,,---,0.00,VWS V14.01,2013-03-01 00:22:00,
2013-02-28 17:27:00,42.4,19.2,30.30,South,177,3.6,8.3,39,0.00,,---,0.00,VWS V14.01,2013-03-01 00:27:00,
2013-02-28 17:32:00,42.4,19.2,30.30,SSW,199,4.0,4.9,39,0.00,,---,0.00,VWS V14.01,2013-03-01 00:32:00,
2013-02-28 17:37:00,42.3,19.1,30.30,South,190,3.6,5.4,39,0.00,,---,0.00,VWS V14.01,2013-03-01 00:37:00,
2013-02-28 17:42:00,42.1,18.9,30.30,SSW,208,3.6,5.4,39,0.00,,---,0.00,VWS V14.01,2013-03-01 00:42:00,
2013-02-28 17:47:00,41.9,18.8,30.30,WSW,239,0.0,4.0,39,0.00,,---,0.00,VWS V14.01,2013-03-01 00:47:00,
2013-02-28 17:52:00,41.7,19.2,30.30,WSW,239,2.2,4.0,40,0.00,,---,0.00,VWS V14.01,2013-03-01 00:52:00,
2013-02-28 17:57:00,41.5,19.0,30.30,WSW,250,0.0,4.0,40,0.00,,---,0.00,VWS V14.01,2013-03-01 00:57:00,
2013-02-28 18:02:00,41.2,18.7,30.30,WSW,250,0.0,0.0,40,0.00,,---,0.00,VWS V14.01,2013-03-01 01:02:00,
2013-02-28 18:07:00,40.8,19.0,30.30,WSW,250,0.0,0.0,41,0.00,,---,0.00,VWS V14.01,2013-03-01 01:07:00,
2013-02-28 18:12:00,40.5,18.6,30.30,WSW,250,0.0,0.0,41,0.00,,---,0.00,VWS V14.01,2013-03-01 01:12:00,
2013-02-28 18:17:00,40.1,18.3,30.30,WSW,250,0.0,0.0,41,0.00,,---,0.00,VWS V14.01,2013-03-01 01:17:00,
2013-02-28 18:22:00,39.6,19.5,30.30,WNW,296,0.0,0.0,44,0.00,,---,0.00,VWS V14.01,2013-03-01 01:22:00,
2013-02-28 18:27:00,39.2,19.1,30.30,SSE,159,0.0,2.7,44,0.00,,---,0.00,VWS V14.01,2013-03-01 01:27:00,
2013-02-28 18:32:00,39.0,19.5,30.30,SSE,159,0.0,0.0,45,0.00,,---,0.00,VWS V14.01,2013-03-01 01:32:00,
2013-02-28 18:37:00,39.2,19.1,30.30,SSW,194,2.7,3.1,44,0.00,,---,0.00,VWS V14.01,2013-03-01 01:37:00,
2013-02-28 18:42:00,39.2,19.1,30.30,SSE,162,2.2,3.1,44,0.00,,---,0.00,VWS V14.01,2013-03-01 01:42:00,
2013-02-28 18:47:00,39.0,19.5,30.30,SSE,162,0.0,0.0,45,0.00,,---,0.00,VWS V14.01,2013-03-01 01:47:00,
2013-02-28 18:52:00,38.7,19.2,30.30,South,177,0.0,0.0,45,0.00,,---,0.00,VWS V14.01,2013-03-01 01:52:00,
2013-02-28 18:57:00,38.7,20.7,30.30,SSW,195,3.6,4.5,48,0.00,,---,0.00,VWS V14.01,2013-03-01 01:57:00,
2013-02-28 19:02:00,38.7,20.7,30.30,SSW,202,3.6,4.0,48,0.00,,---,0.00,VWS V14.01,2013-03-01 02:02:00,
2013-02-28 19:07:00,38.3,20.4,30.30,SSW,205,3.1,4.0,48,0.00,,---,0.00,VWS V14.01,2013-03-01 02:07:00,
2013-02-28 19:12:00,37.8,19.9,30.30,SSW,205,0.0,4.0,48,0.00,,---,0.00,VWS V14.01,2013-03-01 02:12:00,
2013-02-28 19:17:00,37.4,20.0,30.30,SSW,205,0.0,0.0,49,0.00,,---,0.00,VWS V14.01,2013-03-01 02:17:00,
2013-02-28 19:22:00,36.9,20.0,30.30,SSW,205,0.0,0.0,50,0.00,,---,0.00,VWS V14.01,2013-03-01 02:22:00,
2013-02-28 19:27:00,36.7,20.3,30.30,SSW,205,0.0,0.0,51,0.00,,---,0.00,VWS V14.01,2013-03-01 02:27:00,
2013-02-28 19:32:00,36.7,20.7,30.30,SSW,205,0.0,0.0,52,0.00,,---,0.00,VWS V14.01,2013-03-01 02:32:00,
2013-02-28 19:37:00,36.9,20.9,30.30,West,259,0.0,3.1,52,0.00,,---,0.00,VWS V14.01,2013-03-01 02:37:00,
2013-02-28 19:42:00,36.9,20.9,30.30,South,186,0.0,3.1,52,0.00,,---,0.00,VWS V14.01,2013-03-01 02:42:00,
2013-02-28 19:47:00,36.9,20.9,30.30,SSW,212,0.0,0.0,52,0.00,,---,0.00,VWS V14.01,2013-03-01 02:47:00,
2013-02-28 19:52:00,36.9,21.3,30.30,SSW,213,0.0,0.0,53,0.00,,---,0.00,VWS V14.01,2013-03-01 02:52:00,
2013-02-28 19:57:00,36.9,20.9,30.30,South,176,0.0,0.0,52,0.00,,---,0.00,VWS V14.01,2013-03-01 02:57:00,
2013-02-28 20:02:00,36.9,21.3,30.30,South,189,0.0,3.1,53,0.00,,---,0.00,VWS V14.01,2013-03-01 03:02:00,
2013-02-28 20:07:00,37.2,22.1,30.30,SE,125,0.0,3.1,54,0.00,,---,0.00,VWS V14.01,2013-03-01 03:07:00,
2013-02-28 20:12:00,37.4,21.9,30.30,SE,140,2.2,3.1,53,0.00,,---,0.00,VWS V14.01,2013-03-01 03:12:00,
2013-02-28 20:17:00,37.4,21.9,30.30,ESE,121,2.7,4.0,53,0.00,,---,0.00,VWS V14.01,2013-03-01 03:17:00,
2013-02-28 20:22:00,37.4,21.9,30.30,SE,142,2.7,5.4,53,0.00,,---,0.00,VWS V14.01,2013-03-01 03:22:00,
2013-02-28 20:27:00,37.4,21.9,30.30,SE,136,3.6,5.4,53,0.00,,---,0.00,VWS V14.01,2013-03-01 03:27:00,
2013-02-28 20:32:00,37.2,22.1,30.30,SE,144,3.6,4.9,54,0.00,,---,0.00,VWS V14.01,2013-03-01 03:32:00,
2013-02-28 20:37:00,37.4,21.9,30.30,SSW,199,3.1,4.9,53,0.00,,---,0.00,VWS V14.01,2013-03-01 03:37:00,
2013-02-28 20:42:00,37.4,21.9,30.30,SSE,153,3.1,4.9,53,0.00,,---,0.00,VWS V14.01,2013-03-01 03:42:00,
2013-02-28 20:47:00,37.4,22.3,30.30,SE,130,2.7,3.1,54,0.00,,---,0.00,VWS V14.01,2013-03-01 03:47:00,
2013-02-28 20:52:00,37.6,22.5,30.30,SSE,166,0.0,4.0,54,0.00,,---,0.00,VWS V14.01,2013-03-01 03:52:00,
2013-02-28 20:57:00,37.6,22.5,30.30,ESE,122,3.1,4.0,54,0.00,,---,0.00,VWS V14.01,2013-03-01 03:57:00,
2013-02-28 21:02:00,37.4,22.3,30.30,SE,134,3.6,4.9,54,0.00,,---,0.00,VWS V14.01,2013-03-01 04:02:00,
2013-02-28 21:07:00,37.6,22.5,30.30,SSE,147,0.0,4.9,54,0.00,,---,0.00,VWS V14.01,2013-03-01 04:07:00,
2013-02-28 21:12:00,37.6,22.5,30.30,SSE,147,0.0,4.9,54,0.00,,---,0.00,VWS V14.01,2013-03-01 04:12:00,
2013-02-28 21:17:00,37.6,22.5,30.30,SSE,165,5.4,5.8,54,0.00,,---,0.00,VWS V14.01,2013-03-01 04:17:00,
2013-02-28 21:22:00,37.9,23.2,30.30,SSE,154,6.3,8.7,55,0.00,,---,0.00,VWS V14.01,2013-03-01 04:22:00,
2013-02-28 21:27:00,38.1,23.4,30.30,SSW,192,8.1,8.7,55,0.00,,---,0.00,VWS V14.01,2013-03-01 04:27:00,
2013-02-28 21:32:00,38.5,23.7,30.30,SSE,157,3.1,8.1,55,0.00,,---,0.00,VWS V14.01,2013-03-01 04:32:00,
2013-02-28 21:37:00,38.3,23.6,30.30,SSE,159,4.9,8.1,55,0.00,,---,0.00,VWS V14.01,2013-03-01 04:37:00,
2013-02-28 21:42:00,38.5,23.7,30.30,South,169,5.4,8.7,55,0.00,,---,0.00,VWS V14.01,2013-03-01 04:42:00,
2013-02-28 21:47:00,38.7,23.5,30.30,SSE,166,3.6,4.9,54,0.00,,---,0.00,VWS V14.01,2013-03-01 04:47:00,
2013-02-28 21:52:00,38.7,23.5,30.30,SSE,162,5.4,5.4,54,0.00,,---,0.00,VWS V14.01,2013-03-01 04:52:00,
2013-02-28 21:57:00,38.7,23.5,30.30,SSW,199,4.0,6.3,54,0.00,,---,0.00,VWS V14.01,2013-03-01 04:57:00,
2013-02-28 22:00:00,38.7,23.5,30.30,SSE,147,3.1,6.3,54,0.00,,---,0.00,VWS V14.01,2013-03-01 05:00:00,
2013-02-28 22:05:00,38.7,23.5,30.30,SW,236,2.7,5.4,54,0.00,,---,0.00,VWS V14.01,2013-03-01 05:05:00,
2013-02-28 22:06:00,38.7,23.5,30.30,South,171,4.9,5.8,54,0.00,,---,0.00,VWS V14.01,2013-03-01 05:06:00,
2013-02-28 22:11:00,38.7,23.0,30.30,South,183,2.2,5.8,53,0.00,,---,0.00,VWS V14.01,2013-03-01 05:11:00,
2013-02-28 22:16:00,38.7,23.0,30.30,SE,133,2.7,4.0,53,0.00,,---,0.00,VWS V14.01,2013-03-01 05:16:00,
2013-02-28 22:21:00,38.8,23.2,30.30,ESE,118,3.6,4.5,53,0.00,,---,0.00,VWS V14.01,2013-03-01 05:21:00,
2013-02-28 22:26:00,38.8,23.2,30.30,SSE,151,3.1,6.3,53,0.00,,---,0.00,VWS V14.01,2013-03-01 05:26:00,
2013-02-28 22:31:00,39.2,23.5,30.30,South,173,3.6,5.8,53,0.00,,---,0.00,VWS V14.01,2013-03-01 05:31:00,
2013-02-28 22:36:00,39.4,23.2,30.30,South,184,4.9,5.8,52,0.00,,---,0.00,VWS V14.01,2013-03-01 05:36:00,
2013-02-28 22:41:00,39.4,23.2,30.30,SSE,167,0.0,5.8,52,0.00,,---,0.00,VWS V14.01,2013-03-01 05:41:00,
2013-02-28 22:46:00,39.6,23.4,30.30,SSE,166,2.7,6.3,52,0.00,,---,0.00,VWS V14.01,2013-03-01 05:46:00,
2013-02-28 22:51:00,39.7,23.6,30.30,SSE,163,3.6,6.3,52,0.00,,---,0.00,VWS V14.01,2013-03-01 05:51:00,
2013-02-28 22:56:00,39.9,23.3,30.30,SSE,165,5.8,6.3,51,0.00,,---,0.00,VWS V14.01,2013-03-01 05:56:00,
2013-02-28 23:01:00,40.3,23.6,30.30,SE,136,5.8,5.8,51,0.00,,---,0.00,VWS V14.01,2013-03-01 06:01:00,
2013-02-28 23:06:00,40.3,23.6,30.30,South,183,5.4,7.6,51,0.00,,---,0.00,VWS V14.01,2013-03-01 06:06:00,
2013-02-28 23:11:00,40.5,23.3,30.30,SSE,158,3.6,8.1,50,0.00,,---,0.00,VWS V14.01,2013-03-01 06:11:00,
2013-02-28 23:16:00,40.5,22.8,30.30,SSE,162,3.1,5.4,49,0.00,,---,0.00,VWS V14.01,2013-03-01 06:16:00,
2013-02-28 23:21:00,40.5,22.8,30.30,South,173,7.6,7.6,49,0.00,,---,0.00,VWS V14.01,2013-03-01 06:21:00,
2013-02-28 23:26:00,40.6,23.0,30.30,South,173,4.0,7.6,49,0.00,,---,0.00,VWS V14.01,2013-03-01 06:26:00,
2013-02-28 23:31:00,40.5,22.3,30.30,SE,128,4.0,4.9,48,0.00,,---,0.00,VWS V14.01,2013-03-01 06:31:00,
2013-02-28 23:36:00,40.6,22.5,30.30,SSE,147,4.0,7.6,48,0.00,,---,0.00,VWS V14.01,2013-03-01 06:36:00,
2013-02-28 23:41:00,40.3,22.2,30.30,South,180,0.0,7.6,48,0.00,,---,0.00,VWS V14.01,2013-03-01 06:41:00,
2013-02-28 23:46:00,39.9,21.8,30.30,ESE,112,2.7,3.6,48,0.00,,---,0.00,VWS V14.01,2013-03-01 06:46:00,
2013-02-28 23:51:00,40.5,22.8,30.30,ESE,110,2.7,4.0,49,0.00,,---,0.00,VWS V14.01,2013-03-01 06:51:00,
2013-02-28 23:56:00,40.5,22.3,30.33,ESE,121,2.2,4.0,48,0.00,,---,0.00,VWS V14.01,2013-03-01 06:56:00,